ZS1DFR-1 Weather Reports


time (UTC)temp
C
wind
direction
speed
KPH
gust
KPH
rain 1hr
cm
rain 24hr
cm
rain mn
cm
humidity
%
barometer
mb
20260505060834 11 0 0.0 0.0 0.00 0.00 0.00 99 1013.3
20260505055333 11 0 0.0 0.0 0.00 0.00 0.00 99 1013.2
20260505053833 11 0 0.0 0.0 0.00 0.00 0.00 99 1013.2
20260505052333 10 0 0.0 0.0 0.00 0.00 0.00 99 1012.7
20260505050833 10 0 0.0 0.0 0.00 0.00 0.00 99 1012.7
20260505040833 10 0 0.0 0.0 0.00 0.00 0.00 99 1012.5
20260505035333 10 0 0.0 0.0 0.00 0.00 0.00 98 1012.1
20260505033833 10 0 0.0 0.0 0.00 0.00 0.00 98 1012.1
20260505032333 10 0 0.0 0.0 0.00 0.00 0.00 98 1012.2
20260505030833 10 0 0.0 0.0 0.00 0.00 0.00 98 1012.2
20260505025333 11 0 0.0 0.0 0.00 0.00 0.00 98 1012.1
20260505023833 11 0 0.0 0.0 0.00 0.00 0.00 98 1012.1
20260505022332 11 0 0.0 0.0 0.00 0.00 0.00 98 1011.9
20260505020832 11 0 0.0 0.0 0.00 0.00 0.00 98 1011.9
20260505015332 11 0 0.0 0.0 0.00 0.00 0.00 98 1012.1
20260505013833 11 0 0.0 0.0 0.00 0.00 0.00 98 1012.1
20260505012332 11 0 0.0 0.0 0.00 0.00 0.00 98 1012.4
20260505010832 11 0 0.0 0.0 0.00 0.00 0.00 98 1012.4
20260505005332 11 0 0.0 0.0 0.00 0.00 0.00 98 1012.6
20260505003832 11 0 0.0 0.0 0.00 0.00 0.00 98 1012.6
20260505002332 11 0 0.0 0.0 0.00 0.00 0.00 98 1012.7
20260505000832 11 0 0.0 0.0 0.00 0.00 0.00 98 1012.7
20260504235332 11 0 0.0 0.0 0.00 0.00 0.00 97 1012.6
20260504233832 11 0 0.0 0.0 0.00 0.00 0.00 97 1012.6
20260504232332 12 0 0.0 0.0 0.00 0.00 0.00 97 1012.6
20260504230832 12 0 0.0 0.0 0.00 0.00 0.00 97 1012.6
20260504225332 12 315 0.0 3.2 0.08 0.00 0.00 96 1012.9
20260504223832 12 315 0.0 3.2 0.08 0.00 0.00 96 1012.9
20260504222332 13 0 0.0 0.0 0.00 0.00 0.00 83 1013.1
20260504220832 13 0 0.0 0.0 0.00 0.00 0.00 83 1013.1
20260504215332 13 23 0.0 1.6 0.00 0.00 0.00 83 1013.1
20260504213832 13 23 0.0 1.6 0.00 0.00 0.00 83 1013.1
20260504212332 13 0 0.0 0.0 0.00 0.00 0.00 84 1013.2
20260504210832 13 0 0.0 0.0 0.00 0.00 0.00 84 1013.2
20260504205332 14 0 0.0 0.0 0.00 0.00 0.00 86 1013.1
20260504203832 14 0 0.0 0.0 0.00 0.00 0.00 86 1013.1
20260504202332 14 0 0.0 0.0 0.00 0.00 0.00 84 1012.8
20260504200832 14 0 0.0 0.0 0.00 0.00 0.00 84 1012.8
20260504195332 14 23 0.0 1.6 0.00 0.00 0.00 84 1012.9
20260504193832 14 23 0.0 1.6 0.00 0.00 0.00 84 1012.9
20260504192332 14 0 0.0 0.0 0.00 0.00 0.00 83 1012.9
20260504190832 14 0 0.0 0.0 0.00 0.00 0.00 83 1012.9
20260504185332 14 0 0.0 0.0 0.00 0.00 0.00 85 1012.8
20260504183832 14 0 0.0 0.0 0.00 0.00 0.00 85 1012.8
20260504182332 15 0 0.0 0.0 0.00 0.00 0.00 84 1012.7
20260504180832 15 0 0.0 0.0 0.00 0.00 0.00 84 1012.7
20260504175332 15 0 0.0 0.0 0.00 0.00 0.00 85 1012.4
20260504173832 15 0 0.0 0.0 0.00 0.00 0.00 85 1012.4
20260504172332 15 0 0.0 0.0 0.00 0.00 0.00 82 1012.4
20260504170832 15 0 0.0 0.0 0.00 0.00 0.00 82 1012.4
20260504150832 18 270 0.0 11.3 0.00 0.00 0.00 70 1011.8
20260504140832 18 270 0.0 6.4 0.00 0.00 0.00 67 1011.3
20260504080831 14 0 0.0 1.6 0.00 0.00 0.00 99 1012.2